Flight Track Log - Related Links

Times and Time Zones

All times are in EDT time to prevent confusion due to time zone crossing. See the EJA922 flight status page for this flight to view local times or setup timezone preferences in your user account.

Time Position Orientation Groundspeed Altitude Reporting Facility
EDT Latitude Longitude Course Direction KTS MPH feet Rate Location/Type
03:14PM 36.6000 -121.8667 15° North 181 208 1,700  Level Northern Cal TRACON
03:15PM 36.6500 -121.8500 355° North 246 283 5,400 3,900 Climbing Northern Cal TRACON
03:16PM 36.6167 -121.7667 116° Southeast 298 343 9,500 3,174 Climbing Northern Cal TRACON
03:17PM 36.5667 -121.6667 122° Southeast 341 392 11,800 2,456 Climbing Northern Cal TRACON
03:18PM 36.4953 -121.5181 121° Southeast 384 442 15,600 2,497 Climbing Oakland Center
03:19PM 36.4250 -121.3981 126° Southeast 431 496 18,000 2,293 Climbing Oakland Center
03:20PM 36.3211 -121.3056 144° Southeast 457 526 20,300 1,887 Climbing Oakland Center
03:21PM 36.1878 -121.1894 145° Southeast 489 563 21,900 1,610 Climbing Oakland Center
03:23PM 36.0722 -121.0906 145° Southeast 506 582 23,600 1,659 Climbing Oakland Center
03:24PM 35.9558 -120.9894 145° Southeast 510 587 25,300 1,742 Climbing Oakland Center
03:25PM 35.8411 -120.8894 145° Southeast 509 586 27,200 1,694 Climbing Oakland Center
03:26PM 35.7239 -120.7906 146° Southeast 510 587 28,800 1,512 Climbing Oakland Center
03:27PM 35.6089 -120.6836 143° Southeast 519 597 30,300 1,610 Climbing Oakland Center
03:28PM 35.4908 -120.5222 132° Southeast 531 611 32,100 1,649 Climbing Oakland Center
03:29PM 35.3842 -120.3778 132° Southeast 535 616 33,900 1,328 Climbing Los Angeles Center
03:30PM 35.2858 -120.2392 131° Southeast 537 618 35,000 532 Climbing Los Angeles Center
03:31PM 35.1822 -120.0947 131° Southeast 540 621 35,000  Level Los Angeles Center
03:33PM 34.9908 -119.8322 132° Southeast 519 597 35,000  Level Oakland Center
03:34PM 34.8919 -119.6992 132° Southeast 527 606 35,000  Level Oakland Center
03:35PM 34.7717 -119.5383 132° Southeast 530 610 35,000  Level Los Angeles Center
03:36PM 34.6714 -119.4033 132° Southeast 535 616 35,000  Level Los Angeles Center
03:37PM 34.5703 -119.2697 133° Southeast 537 618 35,000  Level Los Angeles Center
03:38PM 34.4703 -119.1383 133° Southeast 533 613 35,000 -871 Level Los Angeles Center
03:39PM 34.3706 -119.0061 132° Southeast 533 613 33,200 -2,544 Descending Los Angeles Center
03:40PM 34.2450 -118.8417 133° Southeast 547 629 29,700 -3,072 Descending Los Angeles Center
03:41PM 34.1414 -118.7061 133° Southeast 551 634 26,800 -2,710 Descending Los Angeles Center
03:42PM 34.0444 -118.5781 132° Southeast 528 608 24,100 -1,548 Descending Los Angeles Center
03:43PM 33.9325 -118.4842 145° Southeast 510 587 23,600 -968 Descending Los Angeles Center
03:44PM 33.8178 -118.4747 176° South 431 496 22,100 -1,694 Descending Los Angeles Center
03:45PM 33.6831 -118.5175 195° South 429 494 20,100 -1,887 Descending Los Angeles Center
03:46PM 33.5664 -118.5464 192° South 438 504 18,200 -1,872 Descending Los Angeles Center
03:47PM 33.4506 -118.4858 156° South 471 542 16,200 -2,064 Descending Los Angeles Center
03:48PM 33.3708 -118.3697 129° Southeast 463 533 13,900 -2,516 Descending Los Angeles Center
03:50PM 33.3472 -118.2081 100° East 420 483 11,000 -1,839 Descending Los Angeles Center
03:51PM 33.3336 -118.1014 99° East 338 389 10,100 -1,403 Descending Los Angeles Center
03:52PM 33.3211 -118.0006 98° East 315 362 8,100 -1,645 Descending Los Angeles Center
03:53PM 33.3078 -117.9058 100° East 297 342 6,700 -1,440 Descending Los Angeles Center
03:54PM 33.2961 -117.8164 99° East 280 322 5,100 -816 Descending Los Angeles Center
03:55PM 33.2806 -117.7103 100° East 273 314 5,000 -48 Descending Los Angeles Center
03:56PM 33.2689 -117.6211 99° East 272 313 5,000  Level Los Angeles Center
03:56PM 33.2667 -117.5500 92° East 272 313 5,000  Level Southern California TRACON
03:57PM 33.2500 -117.4667 103° East 271 312 5,000  Level Southern California TRACON
03:58PM 33.2333 -117.3833 103° East 266 306 5,000  Level Southern California TRACON
03:59PM 33.2333 -117.3000 90° East 268 308 5,000  Level Southern California TRACON
04:00PM 33.2000 -117.2167 116° Southeast 257 296 5,000  Level Southern California TRACON
04:01PM 33.2167 -117.1500 73° East 228 262 5,000  Level Southern California TRACON
04:02PM 33.2333 -117.0667 77° East 216 249 5,000  Level Southern California TRACON
04:03PM 33.2000 -117.0333 140° Southeast 217 250 5,000 -524 Level Southern California TRACON
04:04PM 33.1667 -117.0667 220° Southwest 201 231 3,900 -1,091 Descending Southern California TRACON
04:05PM 33.1500 -117.1333 253° West 196 226 2,800 -1,041 Descending Southern California TRACON
04:06PM 33.1500 -117.1833 270° West 153 176 1,800 -850 Descending Southern California TRACON
04:07PM 33.1333 -117.2333 248° West 125 144 1,100 -667 Descending Southern California TRACON
04:09PM 33.1333 -117.2667 270° West 123 142 400 -636 Descending Southern California TRACON
04:11PM 33.1167 -117.2667 224° Southwest  Level FlightAware Approximate
04:18PM 33.7130 -117.9284 224° Southwest  Level Estimated
04:19PM 33.7979 -118.0237 224° Southwest  Level Estimated
04:20PM 33.8827 -118.1192 224° Southwest  Level Estimated
04:21PM 33.9674 -118.2149 224° Southwest  Level Estimated
04:22PM 34.0521 -118.3107 224° Southwest  Level Estimated

Login

Don't have an account? Register now (free) for customized features, flight alerts, and more!